Погода в Ханка

Узбекистан     41°28′28″N   60°46′51″E
темп.,
°C
ветер,
м/с
пор.,
м/с
влажн.,
%
обл.,
%
осадки,
мм/ч
давл.,
гПа
погр.,
м
3 марта, ср
ср323:00+4в346290 0.0 1028156
02:00+3в236749 0.0 102748
05:00+2в336766 0.0 102668
08:00+1юв346789 0.0 102592
11:00+6юв234885 0.0 1025434
14:00+9ю33432 0.0 1022984
17:00+10ююз22415 0.0 10201235
20:00+8ююв34490 0.0 101973
4 марта, чт
чт423:00+7вюв34530 0.0 101944
02:00+6вюв465733 0.0 1017117
05:00+6юв365966 0.0 1016131
08:00+6ююв346086 0.0 101681
11:00+10зсз684893 0.0 1018681
14:00+9ссз7863100 0.0 1020977
17:00+10сз684569 0.0 10221808
20:00+8сз484796 0.0 1025376
5 марта, пт
пт523:00+6ссз465651 0.0 1028140
02:00+3ссв23648 0.0 102952
05:00+2в34697 0.0 103076
08:00+2в47740 0.0 1030158
11:00+8юв67560 0.0 1028734
14:00+11юв67370 0.0 10241422
17:00+12вюв783038 0.0 10211413
20:00+10всв61135100 0.0 1019501
6 марта, сб
сб623:00+8всв71343100 0.0 1019419
02:00+7св71245100 0.0 1017402
05:00+6св71249100 0.0 1016407
08:00+5ссв61051100 0.0 1018471
11:00+7ссв7941100 0.0 1019704
14:00+9с7837100 0.1 1019942
17:00+9с5736100 0.1 10191094
20:00+6с3642100 0.0 1020205
7 марта, вс
вс723:00+5ссв3347100 0.0 102263
02:00+3всв125518 0.0 102022
05:00+2ююв22569 0.0 102022
08:00+2ююв34550 0.0 101942
11:00+8ююв44370 0.0 1019547
14:00+11ююв452887 0.0 10161092
17:00+12ююв452477 0.0 10141253
20:00+10юв3528100 0.0 1014132